Change the Weather History Date:

Sunday, November 27, 2011

  Actual Average (KAXO) Record (KAXO)
Temperature  
Mean Temperature 57 °F -  
Max Temperature 64 °F 63 °F 77 °F (2001)
Min Temperature 50 °F 60 °F 42 °F (2013)
Degree Days  
Heating Degree Days 8    
Growing Degree Days 7 (Base 50)    
Moisture  
Dew Point 55 °F    
Average Humidity 93    
Maximum Humidity 100    
Minimum Humidity 76    
Precipitation  
Precipitation 0.04 in - - ()
Sea Level Pressure  
Sea Level Pressure 30.01 in    
Wind  
Wind Speed 10 mph (WNW)    
Max Wind Speed 18 mph    
Max Gust Speed 23 mph    
Visibility 10 miles    
Events Rain    
Averages and records for this station are not official NWS values.
T = Trace of Precipitation, MM = Missing Value Source: NWS Daily Summary

Daily Weather History Graph

Daily Weather History Graph

Search for Another Location

Airport or City:

Trip Planner

Search our weather history database for the weather conditions in past years. The results will help you decide how hot, cold, wet, or windy it might be!

Date:

Astronomy

Nov. 27, 2011 Rise Set
Actual Time 6:34 AM CST 5:02 PM CST
Civil Twilight 6:09 AM CST 5:28 PM CST
Nautical Twilight 5:39 AM CST 5:57 PM CST
Astronomical Twilight 5:11 AM CST 6:25 PM CST
Moon 8:57 AM CST (11/27) 7:41 PM CST (11/27)
Length of Visible Light 11h 18m
Length of Day
10h 27m
Waxing Crescent, 8% of the Moon is Illuminated
Nov 27
Waxing Crescent
Dec 2
First Quarter
Dec 10
Full
Dec 17
Last Quarter
Dec 24
New

Hourly Weather History & Observations

Time (CST) Temp. Windchill Dew Point Humidity Pressure Visibility Wind Dir Wind Speed Gust Speed Precip Events Conditions
12:35 AM 64.4 °F - 62.6 °F 94% 29.94 in 7.0 mi West 11.5 mph - 0.01 in Rain Heavy Rain
12:55 AM 62.6 °F - 62.6 °F 100% 29.94 in 7.0 mi NW 12.7 mph - 0.04 in Rain Light Rain
1:15 AM 62.6 °F - 60.8 °F 94% 29.94 in 5.0 mi NW 12.7 mph - N/A   Overcast
1:35 AM 60.8 °F - 60.8 °F 100% 29.95 in 10.0 mi NW 9.2 mph - N/A   Mostly Cloudy
1:55 AM 60.8 °F - 60.8 °F 100% 29.94 in 10.0 mi NW 10.4 mph - N/A   Scattered Clouds
2:15 AM 60.8 °F - 60.8 °F 100% 29.95 in 10.0 mi WNW 11.5 mph - N/A   Clear
2:35 AM 60.8 °F - 59.0 °F 94% 29.95 in 10.0 mi NW 10.4 mph - N/A   Mostly Cloudy
2:55 AM 60.8 °F - 60.8 °F 100% 29.95 in 10.0 mi NW 8.1 mph - N/A   Mostly Cloudy
3:15 AM 60.8 °F - 60.8 °F 100% 29.96 in 10.0 mi WNW 9.2 mph - N/A   Mostly Cloudy
3:35 AM 60.8 °F - 60.8 °F 100% 29.96 in 10.0 mi WNW 10.4 mph 17.3 mph N/A   Overcast
3:55 AM 60.8 °F - 60.8 °F 100% 29.96 in 10.0 mi WNW 9.2 mph - N/A   Overcast
4:15 AM 60.8 °F - 60.8 °F 100% 29.96 in 7.0 mi WNW 9.2 mph - N/A   Overcast
4:35 AM 60.8 °F - 60.8 °F 100% 29.97 in 7.0 mi WNW 6.9 mph - N/A   Overcast
4:55 AM 60.8 °F - 60.8 °F 100% 29.97 in 7.0 mi WNW 6.9 mph - N/A   Overcast
5:15 AM 60.8 °F - 60.8 °F 100% 29.97 in 10.0 mi WNW 5.8 mph - N/A   Mostly Cloudy
5:35 AM 60.8 °F - 60.8 °F 100% 29.97 in 10.0 mi WNW 4.6 mph - N/A   Overcast
5:55 AM 60.8 °F - 60.8 °F 100% 29.97 in 10.0 mi NW 6.9 mph - N/A Rain Rain
6:15 AM 60.8 °F - 60.8 °F 100% 29.99 in 10.0 mi West 3.5 mph - N/A   Overcast
6:35 AM 60.8 °F - 60.8 °F 100% 29.98 in 10.0 mi WNW 5.8 mph - N/A Rain Light Rain
6:55 AM 60.8 °F - 60.8 °F 100% 29.99 in 7.0 mi WNW 6.9 mph - N/A   Overcast
7:15 AM 60.8 °F - 60.8 °F 100% 30.00 in 7.0 mi West 6.9 mph - N/A   Overcast
7:35 AM 60.8 °F - 60.8 °F 100% 30.01 in 10.0 mi WNW 8.1 mph - N/A   Mostly Cloudy
7:55 AM 60.8 °F - 60.8 °F 100% 30.00 in 10.0 mi WNW 5.8 mph - N/A   Mostly Cloudy
8:15 AM 60.8 °F - 60.8 °F 100% 30.02 in 10.0 mi WNW 6.9 mph - N/A   Overcast
8:35 AM 60.8 °F - 60.8 °F 100% 30.02 in 10.0 mi WNW 9.2 mph - N/A   Overcast
8:55 AM 60.8 °F - 59.0 °F 94% 30.03 in 10.0 mi West 6.9 mph - N/A   Overcast
9:15 AM 60.8 °F - 59.0 °F 94% 30.04 in 10.0 mi West 9.2 mph - N/A   Overcast
9:35 AM 59.0 °F - 59.0 °F 100% 30.04 in 10.0 mi West 9.2 mph - N/A   Overcast
9:55 AM 59.0 °F - 59.0 °F 100% 30.04 in 10.0 mi WNW 12.7 mph - N/A   Overcast
10:15 AM 59.0 °F - 59.0 °F 100% 30.04 in 10.0 mi WNW 11.5 mph - N/A   Overcast
10:35 AM 59.0 °F - 59.0 °F 100% 30.03 in 10.0 mi West 10.4 mph - N/A   Overcast
10:55 AM 59.0 °F - 57.2 °F 94% 30.03 in 10.0 mi West 10.4 mph - N/A   Overcast
11:15 AM 57.2 °F - 55.4 °F 94% 30.04 in 10.0 mi West 10.4 mph - N/A   Overcast
11:35 AM 55.4 °F - 55.4 °F 100% 30.04 in 10.0 mi West 12.7 mph - N/A   Overcast
11:55 AM 55.4 °F - 53.6 °F 94% 30.04 in 10.0 mi West 13.8 mph 19.6 mph N/A   Overcast
12:15 PM 53.6 °F - 53.6 °F 100% 30.03 in 10.0 mi WNW 13.8 mph 18.4 mph N/A   Overcast
12:55 PM 55.4 °F - 51.8 °F 88% 30.02 in 10.0 mi West 9.2 mph - N/A   Overcast
1:15 PM 55.4 °F - 51.8 °F 88% 30.02 in 10.0 mi West 11.5 mph - N/A   Overcast
1:35 PM 53.6 °F - 51.8 °F 94% 30.01 in 10.0 mi WNW 12.7 mph - N/A   Overcast
1:55 PM 53.6 °F - 51.8 °F 94% 30.00 in 7.0 mi West 11.5 mph 16.1 mph N/A Rain Light Rain
2:15 PM 53.6 °F - 50.0 °F 88% 30.01 in 7.0 mi WNW 11.5 mph 21.9 mph N/A Rain Light Rain
2:35 PM 53.6 °F - 50.0 °F 88% 30.01 in 10.0 mi West 15.0 mph - N/A   Light Drizzle
2:55 PM 53.6 °F - 50.0 °F 88% 30.00 in 10.0 mi West 12.7 mph 18.4 mph N/A   Overcast
3:15 PM 53.6 °F - 50.0 °F 88% 30.00 in 10.0 mi WNW 13.8 mph 18.4 mph N/A   Overcast
3:35 PM 51.8 °F - 50.0 °F 94% 30.01 in 10.0 mi West 11.5 mph - N/A   Overcast
3:55 PM 51.8 °F - 50.0 °F 94% 30.02 in 10.0 mi West 17.3 mph 21.9 mph N/A   Overcast
4:15 PM 51.8 °F - 48.2 °F 88% 30.02 in 10.0 mi West 12.7 mph 20.7 mph N/A   Overcast
4:35 PM 51.8 °F - 46.4 °F 82% 30.02 in 10.0 mi WNW 15.0 mph - N/A   Overcast
4:55 PM 51.8 °F - 46.4 °F 82% 30.03 in 10.0 mi West 18.4 mph 23.0 mph N/A   Overcast
5:15 PM 51.8 °F - 46.4 °F 82% 30.04 in 10.0 mi WNW 11.5 mph - N/A   Overcast
5:35 PM 51.8 °F - 46.4 °F 82% 30.04 in 10.0 mi WNW 11.5 mph - N/A   Overcast
5:55 PM 51.8 °F - 46.4 °F 82% 30.05 in 10.0 mi West 11.5 mph - N/A   Mostly Cloudy
6:15 PM 51.8 °F - 44.6 °F 76% 30.06 in 10.0 mi West 11.5 mph - N/A   Overcast
6:35 PM 51.8 °F - 44.6 °F 76% 30.06 in 10.0 mi WNW 12.7 mph 17.3 mph N/A   Overcast
6:55 PM 51.8 °F - 44.6 °F 76% 30.06 in 10.0 mi WNW 11.5 mph - N/A   Overcast
7:15 PM 50.0 °F - 44.6 °F 82% 30.06 in 10.0 mi WNW 11.5 mph - N/A   Mostly Cloudy
7:35 PM 50.0 °F - 44.6 °F 82% 30.08 in 10.0 mi West 12.7 mph 20.7 mph N/A   Overcast
7:55 PM 50.0 °F - 44.6 °F 82% 30.08 in 10.0 mi WNW 10.4 mph - N/A   Mostly Cloudy
8:15 PM 50.0 °F - 44.6 °F 82% 30.08 in 10.0 mi WNW 11.5 mph - N/A Rain Light Rain
8:35 PM 50.0 °F - 44.6 °F 82% 30.10 in 10.0 mi West 12.7 mph 23.0 mph N/A   Light Drizzle
8:55 PM 50.0 °F - 44.6 °F 82% 30.10 in 10.0 mi West 11.5 mph 17.3 mph N/A   Mostly Cloudy
9:35 PM 48.2 °F - 44.6 °F 87% 30.11 in 10.0 mi West 12.7 mph 20.7 mph N/A   Overcast
9:55 PM 46.4 °F 40.7 °F 44.6 °F 93% 30.12 in 10.0 mi West 12.7 mph 20.7 mph N/A   Overcast
10:35 PM 46.4 °F 41.5 °F 44.6 °F 93% 30.11 in 10.0 mi West 10.4 mph - N/A   Mostly Cloudy
10:55 PM 46.4 °F 41.1 °F 42.8 °F 87% 30.11 in 10.0 mi West 11.5 mph 19.6 mph N/A   Mostly Cloudy
11:15 PM 46.4 °F 41.9 °F 42.8 °F 87% 30.10 in 10.0 mi WNW 9.2 mph - N/A   Mostly Cloudy
11:35 PM 46.4 °F 41.1 °F 42.8 °F 87% 30.10 in 10.0 mi West 11.5 mph - N/A   Mostly Cloudy
11:55 PM 46.4 °F 41.1 °F 42.8 °F 87% 30.09 in 10.0 mi West 11.5 mph - N/A   Overcast